Phenix City, Alabama, United States (36867)
Lat: 32.47N, Lon: 85W
Wx Zone: ALZ048
Local Info
Past Weather Observations for Today

NOTE: This archive is for the closest National Weather Service station to Phenix City. Information may differ from the station used for current weather conditions.

Time Weather Temperature Dewpoint Humidity Pressure Winds Precip Visibility
19:51
Clear
55°F / 13°C 34°F / 1°C 44% 30.21 in
(1023 mb)
SE 8.1 mph
(SE 13 kph)
- 10SM
18:51
Clear
61°F / 16°C 32°F / 0°C 34% 30.21 in
(1023 mb)
SE 8.1 mph
(SE 13 kph)
- 10SM
17:51
Clear
63°F / 17°C 28°F / -2°C 27% 30.18 in
(1022 mb)
SSE 11.5 mph
(SSE 19 kph)
- 10SM
16:51
Clear
64°F / 18°C 28°F / -2°C 26% 30.18 in
(1022 mb)
ESE 10.4 mph
(ESE 17 kph)
- 10SM
15:51
Clear
64°F / 18°C 28°F / -2°C 26% 30.18 in
(1022 mb)
SE 11.5 mph
(SE 19 kph)
- 10SM
14:51
Clear
63°F / 17°C 30°F / -1°C 30% 30.21 in
(1023 mb)
E 9.2 mph
(E 15 kph)
- 10SM
13:51
Clear
61°F / 16°C 28°F / -2°C 29% 30.24 in
(1024 mb)
E 10.4 mph
(E 17 kph)
- 10SM
12:51
Clear
59°F / 15°C 28°F / -2°C 31% 30.24 in
(1024 mb)
E 8.1 mph
(E 13 kph)
- 10SM
11:51
Clear
55°F / 13°C 28°F / -2°C 36% 30.27 in
(1025 mb)
E 3.5 mph
(E 6 kph)
- 10SM
10:51
Clear
52°F / 11°C 28°F / -2°C 41% 30.27 in
(1025 mb)
E 11.5 mph
(E 19 kph)
- 10SM
09:51
Clear
48°F / 9°C 28°F / -2°C 46% 30.27 in
(1025 mb)
E 13.8 mph
(E 22 kph)
- 10SM
08:51
Clear
46°F / 8°C 28°F / -2°C 50% 30.24 in
(1024 mb)
ESE 17.3 mph
(ESE 28 kph)
- 10SM
07:51
Clear
43°F / 6°C 27°F / -3°C 53% 30.24 in
(1024 mb)
E 15 mph
(E 24 kph)
- 10SM
06:51
Clear
37°F / 3°C 27°F / -3°C 65% 30.21 in
(1023 mb)
ENE 5.8 mph
(ENE 9 kph)
- 10SM
05:51
Clear
37°F / 3°C 27°F / -3°C 65% 30.18 in
(1022 mb)
ENE 5.8 mph
(ENE 9 kph)
- 10SM
04:51
Clear
37°F / 3°C 27°F / -3°C 65% 30.18 in
(1022 mb)
NE 4.6 mph
(NE 7 kph)
- 10SM
03:51
Clear
37°F / 3°C 27°F / -3°C 65% 30.18 in
(1022 mb)
NNE 5.8 mph
(NNE 9 kph)
- 10SM
02:51
Clear
39°F / 4°C 27°F / -3°C 61% 30.15 in
(1021 mb)
N 6.9 mph
(N 11 kph)
- 10SM
01:51
Clear
39°F / 4°C 28°F / -2°C 65% 30.15 in
(1021 mb)
N 5.8 mph
(N 9 kph)
- 10SM
00:51
Clear
39°F / 4°C 28°F / -2°C 65% 30.15 in
(1021 mb)
N 4.6 mph
(N 7 kph)
- 10SM
Time Weather Temperature Dewpoint Humidity Pressure Winds Precip Visibility


Weather for websites

WeatherForYou.com, LLC is not responsible for any damages or problems caused by this service. Current weather conditions are obtained from the closest station including government and personal stations which may have varying degrees of accuracy. Weather forecasts are derived from the NOAA NDFD. Like all things, this site belongs to Jesus Christ... He just trusts me to maintain it. If you have any questions or comments email webmaster@weatherforyou.com

Copyright © 2014, WeatherForYou.com LLC. All rights reserved.